Location: Newark
(41.0400°S, 62.7845°W)
Time: 14:37:58
(UTC+00:00)

STARLINK-3086 - Pass Details

Date: 02 June 2022
Orbit: 570 x 574 km, 70.0° (Epoch: 01 July)

Event Time Altitude Azimuth Distance (km) Brightness Sun altitude
Rises 21:08:28 0° 208° (SSW) 2,813 7.3 -3.8°
Reaches altitude 10° 21:10:43 10° 209° (SSW) 1,906 6.4 -4.2°
Maximum altitude 21:14:58 71° 292° (WNW) 614 4.1 -4.9°
Drops below altitude 10° 21:19:09 10° 16° (NNE) 1,880 6.5 -5.6°
Sets 21:21:21 0° 18° (NNE) 2,770 7.3 -6.0°
